Time,TemperatureF,DewpointF,PressureIn,WindDirection,WindDirectionDegrees,WindSpeedMPH,WindSpeedGustMPH,Humidity,HourlyPrecipIn,Conditions,Clouds,dailyrainin,SoftwareType,DateUTC
2013-03-01 00:02:00,31.0,29.0,-100.00,North,0,1.0,6.0,90,-99.99,,,-99.99,,2013-03-01 06:02:00,
2013-03-01 00:11:00,31.0,28.0,-100.00,North,0,5.0,12.0,87,-99.99,,,-99.99,,2013-03-01 06:11:00,
2013-03-01 00:22:00,31.0,28.0,-100.00,North,0,4.0,9.0,88,-99.99,,,-99.99,,2013-03-01 06:22:00,
2013-03-01 00:30:00,30.0,27.0,-100.00,NNE,15,4.0,13.0,88,-99.99,,,-99.99,,2013-03-01 06:30:00,
2013-03-01 00:32:00,31.0,28.0,-100.00,North,0,4.0,9.0,88,-99.99,,,-99.99,,2013-03-01 06:32:00,
2013-03-01 00:42:00,31.0,27.0,-100.00,NNE,30,7.0,12.0,87,-99.99,,,-99.99,,2013-03-01 06:42:00,
2013-03-01 00:53:00,31.0,28.0,-100.00,North,0,1.0,8.0,88,-99.99,,,-99.99,,2013-03-01 06:53:00,
2013-03-01 01:02:00,31.0,28.0,-100.00,North,0,1.0,8.0,88,-99.99,,,-99.99,,2013-03-01 07:02:00,
2013-03-01 01:11:00,30.0,27.0,-100.00,NNE,15,4.0,13.0,88,-99.99,,,-99.99,,2013-03-01 07:11:00,
2013-03-01 01:22:00,30.0,27.0,-100.00,NNE,15,4.0,13.0,88,-99.99,,,-99.99,,2013-03-01 07:22:00,
2013-03-01 01:52:00,28.0,25.0,-100.00,NE,50,4.0,13.0,86,-99.99,,,-99.99,,2013-03-01 07:52:00,
2013-03-01 02:02:00,28.0,25.0,-100.00,NE,50,4.0,13.0,86,-99.99,,,-99.99,,2013-03-01 08:02:00,
2013-03-01 02:12:00,28.0,24.0,-100.00,NNE,30,4.0,9.0,86,-99.99,,,-99.99,,2013-03-01 08:12:00,
2013-03-01 02:22:00,28.0,23.0,-100.00,NNE,25,6.0,15.0,83,-99.99,,,-99.99,,2013-03-01 08:22:00,
2013-03-01 02:32:00,28.0,23.0,-100.00,NNE,25,6.0,15.0,83,-99.99,,,-99.99,,2013-03-01 08:32:00,
2013-03-01 02:42:00,28.0,23.0,-100.00,NE,35,4.0,14.0,81,-99.99,,,-99.99,,2013-03-01 08:42:00,
2013-03-01 02:53:00,27.0,22.0,-100.00,NE,35,5.0,14.0,81,-99.99,,,-99.99,,2013-03-01 08:53:00,
2013-03-01 03:02:00,27.0,22.0,-100.00,NE,35,5.0,14.0,81,-99.99,,,-99.99,,2013-03-01 09:02:00,
2013-03-01 03:12:00,27.0,22.0,-100.00,NE,40,5.0,11.0,79,-99.99,,,-99.99,,2013-03-01 09:12:00,
2013-03-01 03:22:00,27.0,22.0,-100.00,NE,45,6.0,11.0,79,-99.99,,,-99.99,,2013-03-01 09:22:00,
2013-03-01 03:32:00,27.0,20.0,-100.00,North,0,4.0,14.0,72,-99.99,,,-99.99,,2013-03-01 09:32:00,
2013-03-01 03:42:00,27.0,20.0,-100.00,North,0,4.0,14.0,72,-99.99,,,-99.99,,2013-03-01 09:42:00,
2013-03-01 03:52:00,28.0,19.0,-100.00,North,355,4.0,13.0,70,-99.99,,,-99.99,,2013-03-01 09:52:00,
2013-03-01 04:02:00,28.0,19.0,-100.00,North,355,4.0,13.0,70,-99.99,,,-99.99,,2013-03-01 10:02:00,
2013-03-01 04:11:00,27.0,19.0,-100.00,North,0,5.0,13.0,69,-99.99,,,-99.99,,2013-03-01 10:11:00,
2013-03-01 04:22:00,27.0,18.0,-100.00,North,0,10.0,16.0,68,-99.99,,,-99.99,,2013-03-01 10:22:00,
2013-03-01 04:32:00,27.0,18.0,-100.00,North,0,10.0,16.0,68,-99.99,,,-99.99,,2013-03-01 10:32:00,
2013-03-01 04:42:00,27.0,17.0,-100.00,North,0,8.0,15.0,66,-99.99,,,-99.99,,2013-03-01 10:42:00,
2013-03-01 04:53:00,27.0,18.0,-100.00,North,10,6.0,10.0,68,-99.99,,,-99.99,,2013-03-01 10:53:00,
2013-03-01 05:01:00,27.0,18.0,-100.00,North,10,6.0,10.0,68,-99.99,,,-99.99,,2013-03-01 11:01:00,
2013-03-01 05:11:00,27.0,17.0,-100.00,North,0,9.0,18.0,66,-99.99,,,-99.99,,2013-03-01 11:11:00,
2013-03-01 05:22:00,27.0,18.0,-100.00,North,0,6.0,13.0,67,-99.99,,,-99.99,,2013-03-01 11:22:00,
2013-03-01 05:32:00,27.0,18.0,-100.00,North,0,6.0,10.0,67,-99.99,,,-99.99,,2013-03-01 11:32:00,
2013-03-01 05:42:00,27.0,18.0,-100.00,North,0,6.0,10.0,67,-99.99,,,-99.99,,2013-03-01 11:42:00,
2013-03-01 05:52:00,27.0,18.0,-100.00,North,350,6.0,13.0,68,-99.99,,,-99.99,,2013-03-01 11:52:00,
2013-03-01 06:01:00,27.0,18.0,-100.00,North,350,6.0,13.0,68,-99.99,,,-99.99,,2013-03-01 12:01:00,
2013-03-01 06:11:00,27.0,18.0,-100.00,North,5,5.0,14.0,68,-99.99,,,-99.99,,2013-03-01 12:11:00,
2013-03-01 06:21:00,27.0,18.0,-100.00,North,0,8.0,14.0,69,-99.99,,,-99.99,,2013-03-01 12:21:00,
2013-03-01 06:32:00,27.0,18.0,-100.00,North,0,8.0,14.0,69,-99.99,,,-99.99,,2013-03-01 12:32:00,
2013-03-01 06:42:00,27.0,18.0,-100.00,NNW,345,11.0,15.0,70,-99.99,,,-99.99,,2013-03-01 12:42:00,
2013-03-01 06:52:00,27.0,19.0,-100.00,NNW,340,7.0,15.0,73,-99.99,,,-99.99,,2013-03-01 12:52:00,
2013-03-01 07:01:00,27.0,19.0,-100.00,NNW,340,7.0,15.0,73,-99.99,,,-99.99,,2013-03-01 13:01:00,
2013-03-01 07:11:00,27.0,19.0,-100.00,North,0,9.0,18.0,73,-99.99,,,-99.99,,2013-03-01 13:11:00,
2013-03-01 07:22:00,27.0,20.0,-100.00,NW,325,6.0,17.0,74,-99.99,,,-99.99,,2013-03-01 13:22:00,
2013-03-01 07:32:00,26.0,19.0,-100.00,North,355,11.0,18.0,74,-99.99,,,-99.99,,2013-03-01 13:32:00,
2013-03-01 07:42:00,26.0,19.0,-100.00,North,355,11.0,18.0,74,-99.99,,,-99.99,,2013-03-01 13:42:00,
2013-03-01 07:52:00,26.0,19.0,-100.00,North,0,10.0,19.0,75,-99.99,,,-99.99,,2013-03-01 13:52:00,
2013-03-01 08:01:00,26.0,19.0,-100.00,North,0,10.0,19.0,75,-99.99,,,-99.99,,2013-03-01 14:01:00,
2013-03-01 08:11:00,26.0,20.0,-100.00,North,0,9.0,17.0,75,-99.99,,,-99.99,,2013-03-01 14:11:00,
2013-03-01 08:21:00,26.0,20.0,-100.00,North,5,9.0,17.0,76,-99.99,,,-99.99,,2013-03-01 14:21:00,
2013-03-01 08:32:00,26.0,20.0,-100.00,North,5,9.0,17.0,76,-99.99,,,-99.99,,2013-03-01 14:32:00,
2013-03-01 08:42:00,26.0,19.0,-100.00,North,355,13.0,18.0,74,-99.99,,,-99.99,,2013-03-01 14:42:00,
2013-03-01 08:52:00,26.0,19.0,-100.00,North,0,10.0,18.0,74,-99.99,,,-99.99,,2013-03-01 14:52:00,
2013-03-01 09:01:00,26.0,19.0,-100.00,North,0,10.0,18.0,74,-99.99,,,-99.99,,2013-03-01 15:01:00,
2013-03-01 09:11:00,26.0,19.0,-100.00,North,0,10.0,18.0,74,-99.99,,,-99.99,,2013-03-01 15:11:00,
2013-03-01 09:21:00,26.0,19.0,-100.00,North,0,11.0,18.0,74,-99.99,,,-99.99,,2013-03-01 15:21:00,
2013-03-01 09:32:00,26.0,19.0,-100.00,North,0,11.0,18.0,74,-99.99,,,-99.99,,2013-03-01 15:32:00,
2013-03-01 09:42:00,27.0,19.0,-100.00,North,355,12.0,19.0,73,-99.99,,,-99.99,,2013-03-01 15:42:00,
2013-03-01 09:52:00,27.0,19.0,-100.00,NNW,345,11.0,17.0,72,-99.99,,,-99.99,,2013-03-01 15:52:00,
2013-03-01 10:01:00,27.0,19.0,-100.00,NNW,345,11.0,17.0,72,-99.99,,,-99.99,,2013-03-01 16:01:00,
2013-03-01 10:11:00,27.0,20.0,-100.00,North,350,8.0,19.0,73,-99.99,,,-99.99,,2013-03-01 16:11:00,
2013-03-01 10:21:00,27.0,19.0,-100.00,North,355,8.0,17.0,71,-99.99,,,-99.99,,2013-03-01 16:21:00,
2013-03-01 10:32:00,27.0,19.0,-100.00,North,355,8.0,17.0,71,-99.99,,,-99.99,,2013-03-01 16:32:00,
2013-03-01 10:42:00,27.0,19.0,-100.00,North,355,10.0,17.0,71,-99.99,,,-99.99,,2013-03-01 16:42:00,
2013-03-01 10:52:00,28.0,20.0,-100.00,North,0,9.0,16.0,70,-99.99,,,-99.99,,2013-03-01 16:52:00,
2013-03-01 11:01:00,28.0,20.0,-100.00,North,0,9.0,16.0,70,-99.99,,,-99.99,,2013-03-01 17:01:00,
2013-03-01 11:11:00,28.0,19.0,-100.00,NNW,345,11.0,21.0,69,-99.99,,,-99.99,,2013-03-01 17:11:00,
2013-03-01 11:21:00,29.0,19.0,-100.00,NNW,335,9.0,16.0,67,-99.99,,,-99.99,,2013-03-01 17:21:00,
2013-03-01 11:32:00,29.0,19.0,-100.00,NNW,335,9.0,16.0,67,-99.99,,,-99.99,,2013-03-01 17:32:00,
2013-03-01 11:41:00,29.0,20.0,-100.00,North,0,9.0,16.0,66,-99.99,,,-99.99,,2013-03-01 17:41:00,
2013-03-01 11:52:00,29.0,20.0,-100.00,North,0,8.0,16.0,67,-99.99,,,-99.99,,2013-03-01 17:52:00,
2013-03-01 12:01:00,29.0,20.0,-100.00,North,0,8.0,16.0,67,-99.99,,,-99.99,,2013-03-01 18:01:00,
2013-03-01 12:12:00,29.0,20.0,-100.00,North,350,10.0,20.0,66,-99.99,,,-99.99,,2013-03-01 18:12:00,
2013-03-01 12:22:00,30.0,19.0,-100.00,North,355,7.0,20.0,64,-99.99,,,-99.99,,2013-03-01 18:22:00,
2013-03-01 12:32:00,30.0,19.0,-100.00,North,355,7.0,20.0,64,-99.99,,,-99.99,,2013-03-01 18:32:00,
2013-03-01 12:42:00,30.0,20.0,-100.00,NW,320,9.0,17.0,66,-99.99,,,-99.99,,2013-03-01 18:42:00,
2013-03-01 12:52:00,30.0,20.0,-100.00,North,0,10.0,21.0,66,-99.99,,,-99.99,,2013-03-01 18:52:00,
2013-03-01 13:01:00,30.0,20.0,-100.00,NNE,30,8.0,19.0,65,-99.99,,,-99.99,,2013-03-01 19:01:00,
2013-03-01 13:11:00,30.0,20.0,-100.00,NNE,30,8.0,19.0,65,-99.99,,,-99.99,,2013-03-01 19:11:00,
2013-03-01 13:21:00,30.0,21.0,-100.00,North,5,11.0,19.0,67,-99.99,,,-99.99,,2013-03-01 19:21:00,
2013-03-01 13:32:00,30.0,21.0,-100.00,North,5,11.0,19.0,67,-99.99,,,-99.99,,2013-03-01 19:32:00,
2013-03-01 13:42:00,29.0,20.0,-100.00,NNW,345,11.0,19.0,68,-99.99,,,-99.99,,2013-03-01 19:42:00,
2013-03-01 13:52:00,29.0,20.0,-100.00,NNW,345,11.0,19.0,69,-99.99,,,-99.99,,2013-03-01 19:52:00,
2013-03-01 14:01:00,29.0,20.0,-100.00,NNW,345,11.0,19.0,69,-99.99,,,-99.99,,2013-03-01 20:01:00,
2013-03-01 14:11:00,29.0,21.0,-100.00,NNW,335,8.0,20.0,72,-99.99,,,-99.99,,2013-03-01 20:11:00,
2013-03-01 14:21:00,29.0,21.0,-100.00,North,355,10.0,15.0,72,-99.99,,,-99.99,,2013-03-01 20:21:00,
2013-03-01 14:32:00,29.0,21.0,-100.00,North,355,10.0,15.0,72,-99.99,,,-99.99,,2013-03-01 20:32:00,
2013-03-01 14:42:00,29.0,21.0,-100.00,NNW,340,11.0,20.0,72,-99.99,,,-99.99,,2013-03-01 20:42:00,
2013-03-01 14:52:00,29.0,21.0,-100.00,North,0,8.0,16.0,72,-99.99,,,-99.99,,2013-03-01 20:52:00,
2013-03-01 15:01:00,29.0,21.0,-100.00,North,355,11.0,17.0,72,-99.99,,,-99.99,,2013-03-01 21:01:00,
2013-03-01 15:11:00,29.0,21.0,-100.00,North,355,11.0,17.0,72,-99.99,,,-99.99,,2013-03-01 21:11:00,
2013-03-01 15:21:00,28.0,21.0,-100.00,North,0,7.0,18.0,74,-99.99,,,-99.99,,2013-03-01 21:21:00,
2013-03-01 15:32:00,28.0,21.0,-100.00,North,0,6.0,16.0,74,-99.99,,,-99.99,,2013-03-01 21:32:00,
2013-03-01 15:42:00,28.0,21.0,-100.00,North,0,6.0,16.0,74,-99.99,,,-99.99,,2013-03-01 21:42:00,
2013-03-01 15:52:00,28.0,21.0,-100.00,North,0,11.0,16.0,75,-99.99,,,-99.99,,2013-03-01 21:52:00,
2013-03-01 16:01:00,28.0,21.0,-100.00,North,0,9.0,18.0,76,-99.99,,,-99.99,,2013-03-01 22:01:00,
2013-03-01 16:11:00,28.0,21.0,-100.00,North,0,9.0,18.0,76,-99.99,,,-99.99,,2013-03-01 22:11:00,
2013-03-01 16:21:00,28.0,21.0,-100.00,North,0,5.0,15.0,76,-99.99,,,-99.99,,2013-03-01 22:21:00,
2013-03-01 16:32:00,28.0,21.0,-100.00,North,0,5.0,15.0,76,-99.99,,,-99.99,,2013-03-01 22:32:00,
2013-03-01 16:42:00,28.0,22.0,-100.00,North,355,9.0,14.0,77,-99.99,,,-99.99,,2013-03-01 22:42:00,
2013-03-01 16:52:00,28.0,21.0,-100.00,North,350,9.0,15.0,76,-99.99,,,-99.99,,2013-03-01 22:52:00,
2013-03-01 17:01:00,28.0,21.0,-100.00,North,0,8.0,14.0,75,-99.99,,,-99.99,,2013-03-01 23:01:00,
2013-03-01 17:11:00,28.0,21.0,-100.00,North,0,8.0,14.0,75,-99.99,,,-99.99,,2013-03-01 23:11:00,
2013-03-01 17:21:00,28.0,21.0,-100.00,NNW,340,8.0,14.0,75,-99.99,,,-99.99,,2013-03-01 23:21:00,
2013-03-01 17:31:00,28.0,21.0,-100.00,North,0,7.0,15.0,75,-99.99,,,-99.99,,2013-03-01 23:31:00,
2013-03-01 17:41:00,28.0,21.0,-100.00,North,0,7.0,15.0,75,-99.99,,,-99.99,,2013-03-01 23:41:00,
2013-03-01 17:52:00,27.0,20.0,-100.00,North,0,10.0,17.0,75,-99.99,,,-99.99,,2013-03-01 23:52:00,
2013-03-01 18:02:00,27.0,20.0,-100.00,North,0,10.0,17.0,75,-99.99,,,-99.99,,2013-03-02 00:02:00,
2013-03-01 18:11:00,27.0,20.0,-100.00,North,355,8.0,15.0,75,-99.99,,,-99.99,,2013-03-02 00:11:00,
2013-03-01 18:22:00,27.0,20.0,-100.00,North,355,7.0,14.0,76,-99.99,,,-99.99,,2013-03-02 00:22:00,
2013-03-01 18:32:00,27.0,20.0,-100.00,North,355,7.0,14.0,76,-99.99,,,-99.99,,2013-03-02 00:32:00,
2013-03-01 18:42:00,27.0,20.0,-100.00,North,0,7.0,16.0,76,-99.99,,,-99.99,,2013-03-02 00:42:00,
2013-03-01 18:52:00,27.0,20.0,-100.00,North,355,7.0,18.0,76,-99.99,,,-99.99,,2013-03-02 00:52:00,
2013-03-01 19:01:00,27.0,20.0,-100.00,North,355,7.0,18.0,76,-99.99,,,-99.99,,2013-03-02 01:01:00,
2013-03-01 19:11:00,27.0,20.0,-100.00,North,350,6.0,11.0,76,-99.99,,,-99.99,,2013-03-02 01:11:00,
2013-03-01 19:21:00,27.0,20.0,-100.00,NNW,345,6.0,10.0,75,-99.99,,,-99.99,,2013-03-02 01:21:00,
2013-03-01 19:31:00,27.0,20.0,-100.00,NNW,345,6.0,10.0,75,-99.99,,,-99.99,,2013-03-02 01:31:00,
2013-03-01 19:41:00,27.0,20.0,-100.00,NNW,345,7.0,12.0,73,-99.99,,,-99.99,,2013-03-02 01:41:00,
2013-03-01 19:52:00,27.0,20.0,-100.00,North,355,5.0,11.0,72,-99.99,,,-99.99,,2013-03-02 01:52:00,
2013-03-01 20:01:00,27.0,20.0,-100.00,North,355,5.0,11.0,72,-99.99,,,-99.99,,2013-03-02 02:01:00,
2013-03-01 20:11:00,27.0,19.0,-100.00,NNW,345,5.0,11.0,70,-99.99,,,-99.99,,2013-03-02 02:11:00,
2013-03-01 20:22:00,27.0,19.0,-100.00,North,0,6.0,12.0,70,-99.99,,,-99.99,,2013-03-02 02:22:00,
2013-03-01 20:32:00,27.0,19.0,-100.00,North,0,6.0,12.0,70,-99.99,,,-99.99,,2013-03-02 02:32:00,
2013-03-01 20:42:00,27.0,18.0,-100.00,NNW,345,11.0,17.0,68,-99.99,,,-99.99,,2013-03-02 02:42:00,
2013-03-01 20:52:00,27.0,17.0,-100.00,NNW,340,10.0,16.0,67,-99.99,,,-99.99,,2013-03-02 02:52:00,
2013-03-01 21:02:00,27.0,17.0,-100.00,NNW,340,10.0,16.0,67,-99.99,,,-99.99,,2013-03-02 03:02:00,
2013-03-01 21:11:00,27.0,17.0,-100.00,NNW,340,10.0,16.0,67,-99.99,,,-99.99,,2013-03-02 03:11:00,
2013-03-01 21:21:00,27.0,18.0,-100.00,North,0,3.0,10.0,69,-99.99,,,-99.99,,2013-03-02 03:21:00,
2013-03-01 21:32:00,27.0,18.0,-100.00,North,0,3.0,10.0,69,-99.99,,,-99.99,,2013-03-02 03:32:00,
2013-03-01 21:42:00,26.0,17.0,-100.00,North,0,5.0,9.0,68,-99.99,,,-99.99,,2013-03-02 03:42:00,
2013-03-01 21:52:00,27.0,17.0,-100.00,NNE,25,1.0,5.0,67,-99.99,,,-99.99,,2013-03-02 03:52:00,
2013-03-01 22:01:00,27.0,17.0,-100.00,NNE,25,1.0,5.0,67,-99.99,,,-99.99,,2013-03-02 04:01:00,
2013-03-01 22:11:00,27.0,17.0,-100.00,North,355,4.0,7.0,66,-99.99,,,-99.99,,2013-03-02 04:11:00,
2013-03-01 22:21:00,26.0,17.0,-100.00,North,0,4.0,9.0,66,-99.99,,,-99.99,,2013-03-02 04:21:00,
2013-03-01 22:32:00,26.0,17.0,-100.00,North,0,4.0,9.0,66,-99.99,,,-99.99,,2013-03-02 04:32:00,
2013-03-01 22:42:00,26.0,16.0,-100.00,NNW,330,2.0,6.0,65,-99.99,,,-99.99,,2013-03-02 04:42:00,
2013-03-01 22:52:00,26.0,16.0,-100.00,North,355,4.0,7.0,66,-99.99,,,-99.99,,2013-03-02 04:52:00,
2013-03-01 23:02:00,26.0,16.0,-100.00,North,355,4.0,7.0,66,-99.99,,,-99.99,,2013-03-02 05:02:00,
2013-03-01 23:12:00,26.0,16.0,-100.00,NNW,335,2.0,8.0,66,-99.99,,,-99.99,,2013-03-02 05:12:00,
2013-03-01 23:22:00,26.0,16.0,-100.00,North,355,1.0,6.0,66,-99.99,,,-99.99,,2013-03-02 05:22:00,
2013-03-01 23:32:00,26.0,16.0,-100.00,NNW,340,1.0,4.0,65,-99.99,,,-99.99,,2013-03-02 05:32:00,
2013-03-01 23:42:00,26.0,16.0,-100.00,NNW,340,1.0,4.0,65,-99.99,,,-99.99,,2013-03-02 05:42:00,
2013-03-01 23:52:00,26.0,16.0,-100.00,NNW,335,0.0,3.0,66,-99.99,,,-99.99,,2013-03-02 05:52:00,